Regional Weather Roundup
Issued by NWS Newport/Morehead, NC

Home | Current Version | Previous Version | Text Only | Print | Product List | Glossary On
Versions: 1 2 3 4 5 6 7 8 9 10 11 12 13 14 15 16 17 18 19 20 21 22 23 24 25 26 27 28 29 30 31 32 33 34 35 36 37 38 39 40 41 42 43 44 45 46 47 48 49 50
000
ASUS42 KMHX 060028
RWRMHX
WEATHER ROUNDUP FOR EASTERN NORTH CAROLINA
NATIONAL WEATHER SERVICE NEWPORT/MOREHEAD CITY NC
700 PM EST THU MAR 05 2015

NOTE: "FAIR" INDICATES FEW OR NO CLOUDS BELOW 12,000 FEET
WITH NO SIGNIFICANT WEATHER AND/OR OBSTRUCTIONS TO VISIBILITY

NCZ015>017-031-032-045>047-102-103-060100-
NORTH COAST

CITY           SKY/WX    TMP DP  RH WIND       PRES   REMARKS
EDENTON        LGT RAIN  35  34  95 N14G20    30.20R
ELIZABETH CITY RAIN      35  33  92 N18G28    30.16R
KITTY HAWK     LGT RAIN  37  37 100 N13G20    30.09R
MANTEO         LGT RAIN  38  37  96 E14G24    30.08F

$$

NCZ045>047-081-094-103-104-060100-
CENTRAL COAST

CITY           SKY/WX    TMP DP  RH WIND       PRES   REMARKS
FRISCO         LGT RAIN  37  36  96 N17G31    30.09R FOG
SWANQUARTER      N/A     39 N/A N/A NE10G17   30.03F

$$

NCZ095-097-098-100-101-060100-
SOUTHERN COAST

CITY           SKY/WX    TMP DP  RH WIND       PRES   REMARKS
BEAUFORT       CLOUDY    38  36  92 E13G25    30.06F
CEDAR ISLAND     N/A     39 N/A N/A NE10G22   30.12F
JACKSONVILLE   LGT RAIN  40  37  89 N12       30.08R FOG
PINEY ISLAND     N/A    N/A N/A N/A MISG      30.09F
WILMINGTON     LGT RAIN  42  38  85 E13       30.03F


$$

NCZ011>013-027>030-043-044-078>080-089-090>093-098-060100-
COASTAL PLAIN

CITY           SKY/WX    TMP DP  RH WIND       PRES   REMARKS
AHOSKIE        CLOUDY    34  32  93 N9G16     30.23R
CLINTON        DRIZZLE   40  39  99 NE13G20   30.12R
ELIZABETHTOWN  LGT RAIN  40  40  98 N3        30.14R
GOLDSBORO      LGT RAIN  37  37 100 N15G22    30.16R
GREENVILLE     DRIZZLE   36  36 100 N14G20    30.20R
HAVELOCK       LGT RAIN  38  35  89 E15       30.06F
KENANSVILLE    LGT RAIN  38  38  98 N13       30.14R
KINSTON        CLOUDY    37  37 100 N15       30.15R
NEW BERN       RAIN      39  36  89 NE9       30.10R FOG
RICHLANDS      CLOUDY    39  36  87 N9        30.12R
ROCKY MOUNT    CLOUDY    36  34  92 N14G24    30.20R
WASHINGTON     LGT RAIN  37  35  94 N13G18    30.17R
WHITEVILLE     LGT RAIN  41  39  94 N8        30.09R

$$

AMZ130-135-150-152-154-156-158-170-250-252-270-ANZ085-086-088-633-658-670-060100-
MARINE OBSERVATIONS

STATION/POSITION TIME  TEMP    WIND        PRES    WAVE   SWELL
                       AIR SEA DIR/SP/G            HT/PER HT/PER
                 (UTC) (F)     (DEG/KT/KT) (MB)    (FT/S) (FT/S)
CHESAPEAKE LIGHT 0000   33      20/ 26/ 29 1021.5
64 E VA BEACH    2350   46 52   80/ 23/ 27 1016.0   10/ 8   7/ 8
DUCK             0000   35 36  360/ 25/ 27 1019.2
2 E DUCK         2311      35                N/A     8/ 7   2/11
10 NE DUCK       2322      39                N/A     9/ 7   2/11
OREGON INLET     0000   38 47   50/ 15/ 22 1017.4
HATTERAS CG      0000      51   20/ 27/ 31 1018.8
CAPE LOOKOUT     0000          360/ 22/ 27 1018.9
BEAUFORT LAB     0000   38 49   30/ 12/ 20 1017.6
27 SE WRIGHTSVLE NOT AVBL
5 SE WRIGHTSVLE  NOT AVBL
225 S CAPE HAT   2350   74 73  230/ 19/ 23 1018.9    7/ 8   3/10
41 SE CHARLESTON 2350   71 69  210/ 19/ 23 1014.4    6/ 7   2/11

$$



USA.gov is the U.S. government's official web portal to all federal, state and local government web resources and services.